User: anonymous
Location: Stamford Observatory
(41.1241°N, 73.5498°W)
Time: 18:24:08
(UTC-04:00)
Language:

IRS-P3 - Orbit

View from above orbital plane
View from above orbital plane
View from above satellite
View from above satellite

Ground track
Ground track

The orbit data is extracted from the following two-line orbital elements,

1 23827U 96017A   14264.46443260  .00000142  00000-0  83638-4 0  1093
2 23827 098.6292 201.5397 0004257 062.5505 048.4145 14.22226306960298
Epoch (UTC): 21 September 2014 11:08:46
Eccentricity: 0.0004257
inclination: 98.6292°
perigee height: 815 km
apogee height: 821 km
right ascension of ascending node: 201.5397°
argument of perigee: 62.5505°
revolutions per day: 14.22226306
mean anomaly at epoch: 48.4145°
orbit number at epoch: 96029

The dashed part of the orbit path shows where the satellite is in the earth's shadow,  

DLR